TAURUS DEB

Satellite information

Favourite Embed

Satellite Type and Status

DEBRISIN ORBIT

Key statistics

Satellite TAURUS DEB at a glance.

Uptime

10169

Days in orbit

Revolutions

≈ 14.3

Per day

Orbit

SSO

Sun Synchronous Orbit

Inclination

108.0

Latest

Satellite identification and parameters

Extended collection of information and parameters for TAURUS DEB.

Object identification

Identified? True

Debris? True

Object name: TAURUS DEB

International designator: 1998-007E

Object number (NORAD): 25161

Object ID (CCSDS): 25161

Country: UNITED STATES OF AMERICA (US)

Current information (Y/N): Y

RCS size: LARGE

Orbital parameters

Period: 100.835 minutes

Inclination: 107.9883 deg

SMA: 7176.296 km

Apoapsis: 839.172 km

Periapsis: 757.149 km

RAAN: 55.9136 deg

Eccentricy: 0.00571488

Argument of periapsis: 11.3192 deg

Mean anomaly: 114.8515 deg

Mean motion: 14.28079127 rev/day

Mean motion (dot): 0.00000553 rev/day2

B* drag term: 0.00027007641 1/REarth

Two-line elements (TLE)

Creation date: Dec. 14, 2025, 3:07 a.m.

Reference frame: TEME

Reference center: EARTH

Epoch: Dec. 13, 2025, 4:33 p.m. UTC

TLE line 0: 0 TAURUS DEB

TLE line 1: 1 25161U 98007E 25347.68960211 .00000553 00000-0 27008-3 0 9996

TLE line 2: 2 25161 107.9883 55.9136 0057149 11.3192 114.8515 14.28079127446993

Live tracking on map

Real-time ground track for satellite TAURUS DEB.

In-orbit conjunctions

A list of the most updated potential collisions computed for object TAURUS DEB.

Target Orbit TCA Probability of collision Miss distance Type
PSLV R/B SSO 2025-09-08 10:17:07 0.0004125421 393.0 (m) ROCKET BODY

Associated space launch

The US Navy GFO (Geosat Follow On), is a 369 kg minisatellite based on the Techstar platform to carry on the mission of Geosat. It was launched on the 10th February 1998 on a Taurus-2210 from VAFB alongside two Orbcomm satellites, into a 789 × 881 km (779 × 790 km planned) 108 degree inclined orbit.

TAURUS DEB was lifted into orbit during the mission ‘Taurus 2210 | GFO’, on board a Minotaur-C 2210 space rocket.

The launch took place on Feb. 10, 1998, 1:20 p.m. from Space Launch Complex 576E.

For more information about the launch, click the button.

Launch to space Taurus 2210 | GFO
Taurus 2210 | GFO

Agency: N/A

Status: Launch Successful

Launch date: Feb. 10, 1998, 1:20 p.m. UTC

Rocket: Minotaur-C 2210

Launch pad: Space Launch Complex 576E

Location: Vandenberg SFB, CA, USA

...

Latest news about this satellite

There are no fresh news available about this satellite. Check back as we update our databases every day.


Newsletter sign-up

Weekly statistics, charts and insights to help you stay on top of the space industry.